DECAYED

STARLINK-1600, 46161 (Decayed)

Orbit data source: Space-Track

STARLINK-1600, 46161 was a payload satellite owned by SpaceX/Seattle (US) in LEO that was launched on Tue, 18 Aug 2020 UTC via an FALCON 9 launch vehicle from the Air Force Eastern Test Range (AFETR). Payload-class satellites include a variety of spacecraft equipped with specific instruments for various scientific and technological missions. These include communications satellites like Starlink; space stations such as the ISS; scientific satellites like the Hubble; Earth observation satellites from companies like Planet Labs, Umbra, and HawkEye 360; GPS; miniature CubeSats for education and research; and military/defense satellites.

Not visible in the next 10 days
Identifier
46161, 2020-057AW
Orbit
Decayed
Country
Flag of USUS
Related business
Manufacturer
SpaceX/Seattle
Mission
Decayed Commercial Communications
Bus & Motor
STARLINK, Unknown motor
Mass
260 kg wet, ~248 kg dry
Launch date (UTC)
2020-08-18 (5 years ago)
Launch vehicle
FALCON 9
Launch site
Air Force Eastern Test Range (AFETR)
Object type
Payload
Rocket body
Debris
Shape & HBR
Box + 1 Pan, 10.1 m
Radar Cross Section
13.562 m², Large (>1 m²)

Expand to show TLE details & history
Last TLE update: 8 months ago

TLE from 8 months ago
0 STARLINK-1600
1 46161U 20057AW  25165.72575147  .20918334  12526-4  34767-3 0  9999
2 46161  53.0065 351.8125 0009938 255.7831 168.5342 16.47327399267560
Epoch: 2025-06-14T17:25Z
TLE epoch observation values (Epoch: 2025-06-14T17:25:04.927Z)
Latitude
46.19919°
Longitude
-121.36096°
Altitude
157.636 km
Speed
7.814 km/s
True Right ascension
02h 52m 40s
True Declination
46° 00' 42"
Sunlit
Object was in daylight at epoch
Visualization orbit readout
Latitude
Unknown
Longitude
Unknown
Altitude
Unknown
Speed
Unknown
Apparent Right ascension
Unknown
Apparent Declination
Unknown
Sunlit
N/A
Visualization observer readout
Local Sidereal Time
15:14:32
Azimuth
Unknown
Elevation
Unknown
Doppler factor
Unknown
Orbital elements
Apogee altitude
153.162 km
Perigee altitude
140.194 km
Semi-major axis
6,524.815 km
Eccentricity
0.00099
Inclination
53.0065°
RAAN
351.8125°
Arg. of periapsis
255.7831°
True anomaly
168.55681°
Mean anomaly
168.5342°
Eccentric anomaly
168.54551°
Mean motion
4.11804 °/min
Orbital period
87.42 mins
BSTAR
0.00034767
Loading maneuver chart data...
Computing Atmospheric mass density...
Loading historical data...
Loading historical data...
Loading historical data...
Loading historical data...
Loading historical data...
Loading historical data...
Loading historical data...

Documentation

Showing up to 5 results
|